Year,Month,Day,Hour,Minute,Value (Times are PST for temperature in C)
2016,10,11,00,00,4.30
2016,10,11,00,01,4.30
2016,10,11,00,02,4.20
2016,10,11,00,03,4.20
2016,10,11,00,04,4.20
2016,10,11,00,05,4.20
2016,10,11,00,06,4.20
2016,10,11,00,07,4.20
2016,10,11,00,08,4.20
2016,10,11,00,09,4.20
2016,10,11,00,10,4.20
2016,10,11,00,11,4.20
2016,10,11,00,12,4.20
2016,10,11,00,13,4.20
2016,10,11,00,14,4.20
2016,10,11,00,15,4.20
2016,10,11,00,16,4.20
2016,10,11,00,17,4.20
2016,10,11,00,18,4.20
2016,10,11,00,19,4.20
2016,10,11,00,20,4.20
2016,10,11,00,21,4.20
2016,10,11,00,22,4.20
2016,10,11,00,23,4.20
2016,10,11,00,24,4.20
2016,10,11,00,25,4.20
2016,10,11,00,26,4.10
2016,10,11,00,27,4.10
2016,10,11,00,28,4.10
2016,10,11,00,29,4.10
2016,10,11,00,30,4.10
2016,10,11,00,31,4.10
2016,10,11,00,32,4.10
2016,10,11,00,33,4.10
2016,10,11,00,34,4.00
2016,10,11,00,35,4.00
2016,10,11,00,36,4.00
2016,10,11,00,37,4.00
2016,10,11,00,38,4.00
2016,10,11,00,39,4.00
2016,10,11,00,40,3.90
2016,10,11,00,41,3.90
2016,10,11,00,42,3.90
2016,10,11,00,43,3.90
2016,10,11,00,44,3.90
2016,10,11,00,45,3.90
2016,10,11,00,46,3.90
2016,10,11,00,47,3.90
2016,10,11,00,48,3.80
2016,10,11,00,49,3.80
2016,10,11,00,50,3.80
2016,10,11,00,51,3.80
2016,10,11,00,52,3.80
2016,10,11,00,53,3.80
2016,10,11,00,54,3.80
2016,10,11,00,55,3.80
2016,10,11,00,56,3.80
2016,10,11,00,57,3.80
2016,10,11,00,58,3.80
2016,10,11,00,59,3.80
2016,10,11,01,00,3.80
2016,10,11,01,01,3.80
2016,10,11,01,02,3.80
2016,10,11,01,03,3.70
2016,10,11,01,04,3.70
2016,10,11,01,05,3.70
2016,10,11,01,06,3.70
2016,10,11,01,07,3.70
2016,10,11,01,08,3.70
2016,10,11,01,09,3.70
2016,10,11,01,10,3.70
2016,10,11,01,11,3.70
2016,10,11,01,12,3.70
2016,10,11,01,13,3.70
2016,10,11,01,14,3.70
2016,10,11,01,15,3.70
2016,10,11,01,16,3.70
2016,10,11,01,17,3.70
2016,10,11,01,18,3.60
2016,10,11,01,19,3.60
2016,10,11,01,20,3.60
2016,10,11,01,21,3.60
2016,10,11,01,22,3.60
2016,10,11,01,23,3.60
2016,10,11,01,24,3.60
2016,10,11,01,25,3.60
2016,10,11,01,26,3.60
2016,10,11,01,27,3.60
2016,10,11,01,28,3.60
2016,10,11,01,29,3.60
2016,10,11,01,30,3.60
2016,10,11,01,31,3.60
2016,10,11,01,32,3.60
2016,10,11,01,33,3.50
2016,10,11,01,34,3.50
2016,10,11,01,35,3.50
2016,10,11,01,36,3.50
2016,10,11,01,37,3.50
2016,10,11,01,38,3.50
2016,10,11,01,39,3.50
2016,10,11,01,40,3.50
2016,10,11,01,41,3.50
2016,10,11,01,42,3.50
2016,10,11,01,43,3.50
2016,10,11,01,44,3.40
2016,10,11,01,45,3.40
2016,10,11,01,46,3.40
2016,10,11,01,47,3.40
2016,10,11,01,48,3.40
2016,10,11,01,49,3.40
2016,10,11,01,50,3.40
2016,10,11,01,51,3.40
2016,10,11,01,52,3.40
2016,10,11,01,53,3.30
2016,10,11,01,54,3.30
2016,10,11,01,55,3.30
2016,10,11,01,56,3.30
2016,10,11,01,57,3.30
2016,10,11,01,58,3.30
2016,10,11,01,59,3.30
2016,10,11,02,00,3.30
2016,10,11,02,01,3.30
2016,10,11,02,02,3.30
2016,10,11,02,03,3.30
2016,10,11,02,04,3.30
2016,10,11,02,05,3.30
2016,10,11,02,06,3.20
2016,10,11,02,07,3.20
2016,10,11,02,08,3.20
2016,10,11,02,09,3.20
2016,10,11,02,10,3.20
2016,10,11,02,11,3.20
2016,10,11,02,12,3.20
2016,10,11,02,13,3.20
2016,10,11,02,14,3.20
2016,10,11,02,15,3.20
2016,10,11,02,16,3.10
2016,10,11,02,17,3.10
2016,10,11,02,18,3.10
2016,10,11,02,19,3.10
2016,10,11,02,20,3.10
2016,10,11,02,21,3.10
2016,10,11,02,22,3.10
2016,10,11,02,23,3.10
2016,10,11,02,24,3.10
2016,10,11,02,25,3.10
2016,10,11,02,26,3.10
2016,10,11,02,27,3.10
2016,10,11,02,28,3.10
2016,10,11,02,29,3.10
2016,10,11,02,30,3.10
2016,10,11,02,31,3.10
2016,10,11,02,32,3.00
2016,10,11,02,33,3.00
2016,10,11,02,34,3.00
2016,10,11,02,35,3.00
2016,10,11,02,36,3.00
2016,10,11,02,37,3.00
2016,10,11,02,38,3.00
2016,10,11,02,39,3.00
2016,10,11,02,40,3.00
2016,10,11,02,41,3.00
2016,10,11,02,42,3.00
2016,10,11,02,43,3.00
2016,10,11,02,44,3.00
2016,10,11,02,45,3.00
2016,10,11,02,46,3.00
2016,10,11,02,47,2.90
2016,10,11,02,48,2.90
2016,10,11,02,49,2.90
2016,10,11,02,50,2.90
2016,10,11,02,51,2.90
2016,10,11,02,52,2.90
2016,10,11,02,53,2.90
2016,10,11,02,54,2.90
2016,10,11,02,55,2.90
2016,10,11,02,56,2.90
2016,10,11,02,57,2.90
2016,10,11,02,58,2.90
2016,10,11,02,59,2.90
2016,10,11,03,00,2.90
2016,10,11,03,01,2.90
2016,10,11,03,02,2.90
2016,10,11,03,03,2.90
2016,10,11,03,04,2.90
2016,10,11,03,05,2.90
2016,10,11,03,06,2.90
2016,10,11,03,07,2.90
2016,10,11,03,08,2.90
2016,10,11,03,09,2.90
2016,10,11,03,10,2.90
2016,10,11,03,11,2.90
2016,10,11,03,12,2.90
2016,10,11,03,13,2.90
2016,10,11,03,14,2.90
2016,10,11,03,15,2.90
2016,10,11,03,16,2.90
2016,10,11,03,17,2.90
2016,10,11,03,18,2.90
2016,10,11,03,19,2.80
2016,10,11,03,20,2.80
2016,10,11,03,21,2.80
2016,10,11,03,22,2.80
2016,10,11,03,23,2.80
2016,10,11,03,24,2.80
2016,10,11,03,25,2.80
2016,10,11,03,26,2.80
2016,10,11,03,27,2.80
2016,10,11,03,28,2.80
2016,10,11,03,29,2.80
2016,10,11,03,30,2.80
2016,10,11,03,31,2.80
2016,10,11,03,32,2.80
2016,10,11,03,33,2.80
2016,10,11,03,34,2.80
2016,10,11,03,35,2.80
2016,10,11,03,36,2.80
2016,10,11,03,37,2.80
2016,10,11,03,38,2.70
2016,10,11,03,39,2.70
2016,10,11,03,40,2.70
2016,10,11,03,41,2.70
2016,10,11,03,42,2.70
2016,10,11,03,43,2.70
2016,10,11,03,44,2.70
2016,10,11,03,45,2.70
2016,10,11,03,46,2.70
2016,10,11,03,47,2.70
2016,10,11,03,48,2.70
2016,10,11,03,49,2.70
2016,10,11,03,50,2.70
2016,10,11,03,51,2.70
2016,10,11,03,52,2.70
2016,10,11,03,53,2.70
2016,10,11,03,54,2.70
2016,10,11,03,55,2.70
2016,10,11,03,56,2.70
2016,10,11,03,57,2.70
2016,10,11,03,58,2.70
2016,10,11,03,59,2.70
2016,10,11,04,00,2.70
2016,10,11,04,01,2.70
2016,10,11,04,02,2.60
2016,10,11,04,03,2.60
2016,10,11,04,04,2.60
2016,10,11,04,05,2.60
2016,10,11,04,06,2.60
2016,10,11,04,07,2.60
2016,10,11,04,08,2.60
2016,10,11,04,09,2.60
2016,10,11,04,10,2.60
2016,10,11,04,11,2.60
2016,10,11,04,12,2.60
2016,10,11,04,13,2.60
2016,10,11,04,14,2.50
2016,10,11,04,15,2.50
2016,10,11,04,16,2.50
2016,10,11,04,17,2.50
2016,10,11,04,18,2.50
2016,10,11,04,19,2.50
2016,10,11,04,20,2.40
2016,10,11,04,21,2.40
2016,10,11,04,22,2.40
2016,10,11,04,23,2.40
2016,10,11,04,24,2.40
2016,10,11,04,25,2.40
2016,10,11,04,26,2.40
2016,10,11,04,27,2.40
2016,10,11,04,28,2.30
2016,10,11,04,29,2.30
2016,10,11,04,30,2.30
2016,10,11,04,31,2.30
2016,10,11,04,32,2.30
2016,10,11,04,33,2.30
2016,10,11,04,34,2.30
2016,10,11,04,35,2.30
2016,10,11,04,36,2.30
2016,10,11,04,37,2.30
2016,10,11,04,38,2.30
2016,10,11,04,39,2.20
2016,10,11,04,40,2.20
2016,10,11,04,41,2.20
2016,10,11,04,42,2.20
2016,10,11,04,43,2.20
2016,10,11,04,44,2.20
2016,10,11,04,45,2.20
2016,10,11,04,46,2.20
2016,10,11,04,47,2.20
2016,10,11,04,48,2.20
2016,10,11,04,49,2.20
2016,10,11,04,50,2.20
2016,10,11,04,51,2.20
2016,10,11,04,52,2.20
2016,10,11,04,53,2.20
2016,10,11,04,54,2.20
2016,10,11,04,55,2.20
2016,10,11,04,56,2.20
2016,10,11,04,57,2.20
2016,10,11,04,58,2.10
2016,10,11,04,59,2.10
2016,10,11,05,00,2.10
2016,10,11,05,01,2.10
2016,10,11,05,02,2.10
2016,10,11,05,03,2.10
2016,10,11,05,04,2.10
2016,10,11,05,05,2.20
2016,10,11,05,06,2.20
2016,10,11,05,07,2.10
2016,10,11,05,08,2.10
2016,10,11,05,09,2.20
2016,10,11,05,10,2.20
2016,10,11,05,11,2.20
2016,10,11,05,12,2.20
2016,10,11,05,13,2.20
2016,10,11,05,14,2.10
2016,10,11,05,15,2.10
2016,10,11,05,16,2.10
2016,10,11,05,17,2.10
2016,10,11,05,18,2.10
2016,10,11,05,19,2.10
2016,10,11,05,20,2.10
2016,10,11,05,21,2.10
2016,10,11,05,22,2.10
2016,10,11,05,23,2.10
2016,10,11,05,24,2.10
2016,10,11,05,25,2.10
2016,10,11,05,26,2.10
2016,10,11,05,27,2.10
2016,10,11,05,28,2.10
2016,10,11,05,29,2.10
2016,10,11,05,30,2.10
2016,10,11,05,31,2.10
2016,10,11,05,32,2.10
2016,10,11,05,33,2.10
2016,10,11,05,34,2.10
2016,10,11,05,35,2.10
2016,10,11,05,36,2.10
2016,10,11,05,37,2.10
2016,10,11,05,38,2.10
2016,10,11,05,39,2.10
2016,10,11,05,40,2.10
2016,10,11,05,41,2.10
2016,10,11,05,42,2.10
2016,10,11,05,43,2.10
2016,10,11,05,44,2.10
2016,10,11,05,45,2.10
2016,10,11,05,46,2.10
2016,10,11,05,47,2.00
2016,10,11,05,48,2.00
2016,10,11,05,49,2.00
2016,10,11,05,50,2.00
2016,10,11,05,51,2.00
2016,10,11,05,52,2.00
2016,10,11,05,53,2.00
2016,10,11,05,54,2.00
2016,10,11,05,55,2.00
2016,10,11,05,56,2.00
2016,10,11,05,57,2.00
2016,10,11,05,58,2.00
2016,10,11,05,59,2.00
2016,10,11,06,00,2.00
2016,10,11,06,01,2.00
2016,10,11,06,02,2.10
2016,10,11,06,03,2.10
2016,10,11,06,04,2.10
2016,10,11,06,05,2.10
2016,10,11,06,06,2.10
2016,10,11,06,07,2.10
2016,10,11,06,08,2.10
2016,10,11,06,09,2.00
2016,10,11,06,10,2.00
2016,10,11,06,11,2.00
2016,10,11,06,12,2.00
2016,10,11,06,13,2.00
2016,10,11,06,14,2.00
2016,10,11,06,15,2.00
2016,10,11,06,16,2.00
2016,10,11,06,17,2.00
2016,10,11,06,18,2.00
2016,10,11,06,19,2.00
2016,10,11,06,20,2.00
2016,10,11,06,21,2.00
2016,10,11,06,22,1.90
2016,10,11,06,23,1.90
2016,10,11,06,24,1.90
2016,10,11,06,25,1.90
2016,10,11,06,26,1.90
2016,10,11,06,27,1.90
2016,10,11,06,28,1.90
2016,10,11,06,29,1.90
2016,10,11,06,30,1.90
2016,10,11,06,31,1.90
2016,10,11,06,32,1.90
2016,10,11,06,33,1.90
2016,10,11,06,34,1.90
2016,10,11,06,35,1.90
2016,10,11,06,36,1.90
2016,10,11,06,37,1.90
2016,10,11,06,38,1.90
2016,10,11,06,39,1.90
2016,10,11,06,40,1.90
2016,10,11,06,41,1.90
2016,10,11,06,42,1.80
2016,10,11,06,43,1.80
2016,10,11,06,44,1.80
2016,10,11,06,45,1.80
2016,10,11,06,46,1.80
2016,10,11,06,47,1.80
2016,10,11,06,48,1.80
2016,10,11,06,49,1.80
2016,10,11,06,50,1.80
2016,10,11,06,51,1.80
2016,10,11,06,52,1.70
2016,10,11,06,53,1.70
2016,10,11,06,54,1.70
2016,10,11,06,55,1.70
2016,10,11,06,56,1.70
2016,10,11,06,57,1.70
2016,10,11,06,58,1.70
2016,10,11,06,59,1.70
2016,10,11,07,00,1.70
2016,10,11,07,01,1.70
2016,10,11,07,02,1.70
2016,10,11,07,03,1.70
2016,10,11,07,04,1.70
2016,10,11,07,05,1.70
2016,10,11,07,06,1.70
2016,10,11,07,07,1.70
2016,10,11,07,08,1.70
2016,10,11,07,09,1.70
2016,10,11,07,10,1.70
2016,10,11,07,11,1.60
2016,10,11,07,12,1.60
2016,10,11,07,13,1.60
2016,10,11,07,14,1.60
2016,10,11,07,15,1.60
2016,10,11,07,16,1.60
2016,10,11,07,17,1.60
2016,10,11,07,18,1.60
2016,10,11,07,19,1.60
2016,10,11,07,20,1.60
2016,10,11,07,21,1.60
2016,10,11,07,22,1.60
2016,10,11,07,23,1.60
2016,10,11,07,24,1.60
2016,10,11,07,25,1.60
2016,10,11,07,26,1.60
2016,10,11,07,27,1.60
2016,10,11,07,28,1.60
2016,10,11,07,29,1.60
2016,10,11,07,30,1.50
2016,10,11,07,31,1.50
2016,10,11,07,32,1.50
2016,10,11,07,33,1.50
2016,10,11,07,34,1.50
2016,10,11,07,35,1.50
2016,10,11,07,36,1.50
2016,10,11,07,37,1.50
2016,10,11,07,38,1.50
2016,10,11,07,39,1.40
2016,10,11,07,40,1.40
2016,10,11,07,41,1.40
2016,10,11,07,42,1.40
2016,10,11,07,43,1.40
2016,10,11,07,44,1.40
2016,10,11,07,45,1.40
2016,10,11,07,46,1.40
2016,10,11,07,47,1.40
2016,10,11,07,48,1.40
2016,10,11,07,49,1.40
2016,10,11,07,50,1.40
2016,10,11,07,51,1.40
2016,10,11,07,52,1.30
2016,10,11,07,53,1.30
2016,10,11,07,54,1.30
2016,10,11,07,55,1.30
2016,10,11,07,56,1.30
2016,10,11,07,57,1.30
2016,10,11,07,58,1.30
2016,10,11,07,59,1.30
2016,10,11,08,00,1.30
2016,10,11,08,01,1.30
2016,10,11,08,02,1.30
2016,10,11,08,03,1.30
2016,10,11,08,04,1.30
2016,10,11,08,05,1.30
2016,10,11,08,06,1.30
2016,10,11,08,07,1.30
2016,10,11,08,08,1.30
2016,10,11,08,09,1.30
2016,10,11,08,10,1.30
2016,10,11,08,11,1.30
2016,10,11,08,12,1.30
2016,10,11,08,13,1.30
2016,10,11,08,14,1.30
2016,10,11,08,15,1.30
2016,10,11,08,16,1.40
2016,10,11,08,17,1.40
2016,10,11,08,18,1.40
2016,10,11,08,19,1.40
2016,10,11,08,20,1.40
2016,10,11,08,21,1.40
2016,10,11,08,22,1.40
2016,10,11,08,23,1.40
2016,10,11,08,24,1.40
2016,10,11,08,25,1.40
2016,10,11,08,26,1.40
2016,10,11,08,27,1.40
2016,10,11,08,28,1.50
2016,10,11,08,29,1.50
2016,10,11,08,30,1.50
2016,10,11,08,31,1.50
2016,10,11,08,32,1.50
2016,10,11,08,33,1.50
2016,10,11,08,34,1.50
2016,10,11,08,35,1.60
2016,10,11,08,36,1.60
2016,10,11,08,37,1.60
2016,10,11,08,38,1.60
2016,10,11,08,39,1.60
2016,10,11,08,40,1.60
2016,10,11,08,41,1.70
2016,10,11,08,42,1.70
2016,10,11,08,43,1.70
2016,10,11,08,44,1.80
2016,10,11,08,45,1.80
2016,10,11,08,46,1.80
2016,10,11,08,47,1.80
2016,10,11,08,48,1.80
2016,10,11,08,49,1.90
2016,10,11,08,50,1.90
2016,10,11,08,51,1.90
2016,10,11,08,52,2.00
2016,10,11,08,53,2.00
2016,10,11,08,54,2.00
2016,10,11,08,55,2.10
2016,10,11,08,56,2.10
2016,10,11,08,57,2.10
2016,10,11,08,58,2.10
2016,10,11,08,59,2.20
2016,10,11,09,00,2.20
2016,10,11,09,01,2.30
2016,10,11,09,02,2.30
2016,10,11,09,03,2.30
2016,10,11,09,04,2.40
2016,10,11,09,05,2.40
2016,10,11,09,06,2.40
2016,10,11,09,07,2.50
2016,10,11,09,08,2.50
2016,10,11,09,09,2.60
2016,10,11,09,10,2.60
2016,10,11,09,11,2.70
2016,10,11,09,12,2.70
2016,10,11,09,13,2.70
2016,10,11,09,14,2.80
2016,10,11,09,15,2.80
2016,10,11,09,16,2.80
2016,10,11,09,17,2.90
2016,10,11,09,18,2.90
2016,10,11,09,19,3.00
2016,10,11,09,20,3.00
2016,10,11,09,21,3.10
2016,10,11,09,22,3.10
2016,10,11,09,23,3.20
2016,10,11,09,24,3.20
2016,10,11,09,25,3.30
2016,10,11,09,26,3.30
2016,10,11,09,27,3.30
2016,10,11,09,28,3.40
2016,10,11,09,29,3.40
2016,10,11,09,30,3.50
2016,10,11,09,31,3.50
2016,10,11,09,32,3.60
2016,10,11,09,33,3.70
2016,10,11,09,34,3.70
2016,10,11,09,35,3.70
2016,10,11,09,36,3.80
2016,10,11,09,37,3.80
2016,10,11,09,38,3.90
2016,10,11,09,39,3.90
2016,10,11,09,40,4.00
2016,10,11,09,41,4.10
2016,10,11,09,42,4.10
2016,10,11,09,43,4.20
2016,10,11,09,44,4.20
2016,10,11,09,45,4.30
2016,10,11,09,46,4.30
2016,10,11,09,47,4.30
2016,10,11,09,48,4.40
2016,10,11,09,49,4.50
2016,10,11,09,50,4.50
2016,10,11,09,51,4.60
2016,10,11,09,52,4.60
2016,10,11,09,53,4.70
2016,10,11,09,54,4.70
2016,10,11,09,55,4.70
2016,10,11,09,56,4.80
2016,10,11,09,57,4.80
2016,10,11,09,58,4.90
2016,10,11,09,59,5.00
2016,10,11,10,00,5.10
2016,10,11,10,01,5.10
2016,10,11,10,02,5.20
2016,10,11,10,03,5.20
2016,10,11,10,04,5.30
2016,10,11,10,05,5.40
2016,10,11,10,06,5.50
2016,10,11,10,07,5.50
2016,10,11,10,08,5.60
2016,10,11,10,09,5.70
2016,10,11,10,10,5.70
2016,10,11,10,11,5.70
2016,10,11,10,12,5.80
2016,10,11,10,13,5.80
2016,10,11,10,14,5.90
2016,10,11,10,15,6.00
2016,10,11,10,16,6.00
2016,10,11,10,17,6.10
2016,10,11,10,18,6.10
2016,10,11,10,19,6.20
2016,10,11,10,20,6.20
2016,10,11,10,21,6.30
2016,10,11,10,22,6.30
2016,10,11,10,23,6.40
2016,10,11,10,24,6.40
2016,10,11,10,25,6.50
2016,10,11,10,26,6.50
2016,10,11,10,27,6.60
2016,10,11,10,28,6.70
2016,10,11,10,29,6.70
2016,10,11,10,30,6.80
2016,10,11,10,31,6.80
2016,10,11,10,32,6.80
2016,10,11,10,33,6.90
2016,10,11,10,34,6.90
2016,10,11,10,35,6.90
2016,10,11,10,36,7.00
2016,10,11,10,37,7.00
2016,10,11,10,38,7.10
2016,10,11,10,39,7.10
2016,10,11,10,40,7.20
2016,10,11,10,41,7.20
2016,10,11,10,42,7.20
2016,10,11,10,43,7.30
2016,10,11,10,44,7.30
2016,10,11,10,45,7.40
2016,10,11,10,46,7.40
2016,10,11,10,47,7.50
2016,10,11,10,48,7.60
2016,10,11,10,49,7.70
2016,10,11,10,50,7.70
2016,10,11,10,51,7.80
2016,10,11,10,52,7.80
2016,10,11,10,53,7.80
2016,10,11,10,54,7.90
2016,10,11,10,55,7.90
2016,10,11,10,56,7.90
2016,10,11,10,57,8.00
2016,10,11,10,58,8.10
2016,10,11,10,59,8.10
2016,10,11,11,00,8.10
2016,10,11,11,01,8.10
2016,10,11,11,02,8.10
2016,10,11,11,03,8.20
2016,10,11,11,04,8.20
2016,10,11,11,05,8.20
2016,10,11,11,06,8.30
2016,10,11,11,07,8.30
2016,10,11,11,08,8.30
2016,10,11,11,09,8.40
2016,10,11,11,10,8.50
2016,10,11,11,11,8.50
2016,10,11,11,12,8.60
2016,10,11,11,13,8.60
2016,10,11,11,14,8.60
2016,10,11,11,15,8.70
2016,10,11,11,16,8.70
2016,10,11,11,17,8.80
2016,10,11,11,18,8.80
2016,10,11,11,19,8.90
2016,10,11,11,20,8.90
2016,10,11,11,21,9.00
2016,10,11,11,22,9.00
2016,10,11,11,23,9.00
2016,10,11,11,24,9.00
2016,10,11,11,25,9.10
2016,10,11,11,26,9.10
2016,10,11,11,27,9.10
2016,10,11,11,28,9.10
2016,10,11,11,29,9.10
2016,10,11,11,30,9.20
2016,10,11,11,31,9.20
2016,10,11,11,32,9.30
2016,10,11,11,33,9.30
2016,10,11,11,34,9.30
2016,10,11,11,35,9.30
2016,10,11,11,36,9.40
2016,10,11,11,37,9.40
2016,10,11,11,38,9.50
2016,10,11,11,39,9.50
2016,10,11,11,40,9.60
2016,10,11,11,41,9.60
2016,10,11,11,42,9.70
2016,10,11,11,43,9.70
2016,10,11,11,44,9.70
2016,10,11,11,45,9.70
2016,10,11,11,46,9.70
2016,10,11,11,47,9.70
2016,10,11,11,48,9.70
2016,10,11,11,49,9.70
2016,10,11,11,50,9.70
2016,10,11,11,51,9.70
2016,10,11,11,52,9.80
2016,10,11,11,53,9.80
2016,10,11,11,54,9.80
2016,10,11,11,55,9.80
2016,10,11,11,56,9.90
2016,10,11,11,57,9.90
2016,10,11,11,58,9.90
2016,10,11,11,59,9.90
2016,10,11,12,00,10.00
2016,10,11,12,01,10.00
2016,10,11,12,02,10.00
2016,10,11,12,03,10.10
2016,10,11,12,04,10.10
2016,10,11,12,05,10.20
2016,10,11,12,06,10.20
2016,10,11,12,07,10.20
2016,10,11,12,08,10.30
2016,10,11,12,09,10.30
2016,10,11,12,10,10.30
2016,10,11,12,11,10.30
2016,10,11,12,12,10.40
2016,10,11,12,13,10.40
2016,10,11,12,14,10.40
2016,10,11,12,15,10.40
2016,10,11,12,16,10.40
2016,10,11,12,17,10.40
2016,10,11,12,18,10.40
2016,10,11,12,19,10.50
2016,10,11,12,20,10.50
2016,10,11,12,21,10.60
2016,10,11,12,22,10.60
2016,10,11,12,23,10.70
2016,10,11,12,24,10.70
2016,10,11,12,25,10.80
2016,10,11,12,26,10.80
2016,10,11,12,27,10.90
2016,10,11,12,28,10.90
2016,10,11,12,29,11.00
2016,10,11,12,30,11.00
2016,10,11,12,31,11.00
2016,10,11,12,32,11.10
2016,10,11,12,33,11.10
2016,10,11,12,34,11.20
2016,10,11,12,35,11.20
2016,10,11,12,36,11.20
2016,10,11,12,37,11.20
2016,10,11,12,38,11.10
2016,10,11,12,39,11.10
2016,10,11,12,40,11.10
2016,10,11,12,41,11.10
2016,10,11,12,42,11.10
2016,10,11,12,43,11.00
2016,10,11,12,44,11.00
2016,10,11,12,45,10.90
2016,10,11,12,46,10.90
2016,10,11,12,47,10.80
2016,10,11,12,48,10.80
2016,10,11,12,49,10.80
2016,10,11,12,50,10.90
2016,10,11,12,51,10.90
2016,10,11,12,52,10.90
2016,10,11,12,53,10.90
2016,10,11,12,54,11.00
2016,10,11,12,55,11.00
2016,10,11,12,56,11.00
2016,10,11,12,57,10.90
2016,10,11,12,58,10.90
2016,10,11,12,59,10.90
2016,10,11,13,00,10.90
2016,10,11,13,01,10.90
2016,10,11,13,02,10.90
2016,10,11,13,03,10.90
2016,10,11,13,04,11.00
2016,10,11,13,05,10.90
2016,10,11,13,06,10.90
2016,10,11,13,07,11.00
2016,10,11,13,08,11.00
2016,10,11,13,09,11.00
2016,10,11,13,10,11.00
2016,10,11,13,11,11.00
2016,10,11,13,12,11.10
2016,10,11,13,13,11.10
2016,10,11,13,14,11.10
2016,10,11,13,15,11.10
2016,10,11,13,16,11.10
2016,10,11,13,17,11.10
2016,10,11,13,18,11.10
2016,10,11,13,19,11.10
2016,10,11,13,20,11.10
2016,10,11,13,21,11.10
2016,10,11,13,22,11.10
2016,10,11,13,23,11.10
2016,10,11,13,24,11.10
2016,10,11,13,25,11.10
2016,10,11,13,26,11.10
2016,10,11,13,27,11.10
2016,10,11,13,28,11.10
2016,10,11,13,29,11.10
2016,10,11,13,30,11.10
2016,10,11,13,31,11.00
2016,10,11,13,32,11.00
2016,10,11,13,33,10.90
2016,10,11,13,34,10.90
2016,10,11,13,35,10.90
2016,10,11,13,36,11.00
2016,10,11,13,37,11.00
2016,10,11,13,38,11.00
2016,10,11,13,39,11.10
2016,10,11,13,40,11.10
2016,10,11,13,41,11.10
2016,10,11,13,42,11.10
2016,10,11,13,43,11.10
2016,10,11,13,44,11.10
2016,10,11,13,45,11.00
2016,10,11,13,46,11.00
2016,10,11,13,47,10.90
2016,10,11,13,48,11.00
2016,10,11,13,49,11.00
2016,10,11,13,50,11.00
2016,10,11,13,51,11.00
2016,10,11,13,52,11.00
2016,10,11,13,53,11.10
2016,10,11,13,54,11.10
2016,10,11,13,55,11.10
2016,10,11,13,56,11.10
2016,10,11,13,57,11.20
2016,10,11,13,58,11.20
2016,10,11,13,59,11.20
2016,10,11,14,00,11.20
2016,10,11,14,01,11.20
2016,10,11,14,02,11.20
2016,10,11,14,03,11.20
2016,10,11,14,04,11.20
2016,10,11,14,05,11.20
2016,10,11,14,06,11.20
2016,10,11,14,07,11.20
2016,10,11,14,08,11.20
2016,10,11,14,09,11.20
2016,10,11,14,10,11.20
2016,10,11,14,11,11.20
2016,10,11,14,12,11.20
2016,10,11,14,13,11.20
2016,10,11,14,14,11.20
2016,10,11,14,15,11.20
2016,10,11,14,16,11.20
2016,10,11,14,17,11.20
2016,10,11,14,18,11.30
2016,10,11,14,19,11.30
2016,10,11,14,20,11.30
2016,10,11,14,21,11.30
2016,10,11,14,22,11.40
2016,10,11,14,23,11.40
2016,10,11,14,24,11.40
2016,10,11,14,25,11.40
2016,10,11,14,26,11.40
2016,10,11,14,27,11.40
2016,10,11,14,28,11.40
2016,10,11,14,29,11.40
2016,10,11,14,30,11.40
2016,10,11,14,31,11.40
2016,10,11,14,32,11.40
2016,10,11,14,33,11.40
2016,10,11,14,34,11.40
2016,10,11,14,35,11.40
2016,10,11,14,36,11.50
2016,10,11,14,37,11.50
2016,10,11,14,38,11.50
2016,10,11,14,39,11.50
2016,10,11,14,40,11.60
2016,10,11,14,41,11.60
2016,10,11,14,42,11.60
2016,10,11,14,43,11.60
2016,10,11,14,44,11.60
2016,10,11,14,45,11.60
2016,10,11,14,46,11.60
2016,10,11,14,47,11.60
2016,10,11,14,48,11.60
2016,10,11,14,49,11.60
2016,10,11,14,50,11.60
2016,10,11,14,51,11.60
2016,10,11,14,52,11.60
2016,10,11,14,53,11.60
2016,10,11,14,54,11.60
2016,10,11,14,55,11.60
2016,10,11,14,56,11.60
2016,10,11,14,57,11.50
2016,10,11,14,58,11.50
2016,10,11,14,59,11.40
2016,10,11,15,00,11.40
2016,10,11,15,01,11.40
2016,10,11,15,02,11.40
2016,10,11,15,03,11.40
2016,10,11,15,04,11.30
2016,10,11,15,05,11.30
2016,10,11,15,06,11.30
2016,10,11,15,07,11.30
2016,10,11,15,08,11.30
2016,10,11,15,09,11.40
2016,10,11,15,10,11.40
2016,10,11,15,11,11.40
2016,10,11,15,12,11.40
2016,10,11,15,13,11.40
2016,10,11,15,14,11.40
2016,10,11,15,15,11.40
2016,10,11,15,16,11.40
2016,10,11,15,17,11.30
2016,10,11,15,18,11.30
2016,10,11,15,19,11.30
2016,10,11,15,20,11.30
2016,10,11,15,21,11.30
2016,10,11,15,22,11.30
2016,10,11,15,23,11.30
2016,10,11,15,24,11.30
2016,10,11,15,25,11.30
2016,10,11,15,26,11.30
2016,10,11,15,27,11.30
2016,10,11,15,28,11.30
2016,10,11,15,29,11.30
2016,10,11,15,30,11.30
2016,10,11,15,31,11.30
2016,10,11,15,32,11.30
2016,10,11,15,33,11.40
2016,10,11,15,34,11.40
2016,10,11,15,35,11.40
2016,10,11,15,36,11.40
2016,10,11,15,37,11.50
2016,10,11,15,38,11.50
2016,10,11,15,39,11.50
2016,10,11,15,40,11.50
2016,10,11,15,41,11.50
2016,10,11,15,42,11.50
2016,10,11,15,43,11.60
2016,10,11,15,44,11.60
2016,10,11,15,45,11.60
2016,10,11,15,46,11.60
2016,10,11,15,47,11.60
2016,10,11,15,48,11.70
2016,10,11,15,49,11.70
2016,10,11,15,50,11.70
2016,10,11,15,51,11.70
2016,10,11,15,52,11.70
2016,10,11,15,53,11.70
2016,10,11,15,54,11.70
2016,10,11,15,55,11.70
2016,10,11,15,56,11.70
2016,10,11,15,57,11.70
2016,10,11,15,58,11.70
2016,10,11,15,59,11.70
2016,10,11,16,00,11.70
2016,10,11,16,01,11.70
2016,10,11,16,02,11.70
2016,10,11,16,03,11.70
2016,10,11,16,04,11.70
2016,10,11,16,05,11.80
2016,10,11,16,06,11.80
2016,10,11,16,07,11.80
2016,10,11,16,08,11.80
2016,10,11,16,09,11.80
2016,10,11,16,10,11.80
2016,10,11,16,11,11.80
2016,10,11,16,12,11.80
2016,10,11,16,13,11.80
2016,10,11,16,14,11.80
2016,10,11,16,15,11.80
2016,10,11,16,16,11.80
2016,10,11,16,17,11.80
2016,10,11,16,18,11.80
2016,10,11,16,19,11.80
2016,10,11,16,20,11.80
2016,10,11,16,21,11.80
2016,10,11,16,22,11.80
2016,10,11,16,23,11.80
2016,10,11,16,24,11.80
2016,10,11,16,25,11.80
2016,10,11,16,26,11.80
2016,10,11,16,27,11.80
2016,10,11,16,28,11.80
2016,10,11,16,29,11.70
2016,10,11,16,30,11.80
2016,10,11,16,31,11.80
2016,10,11,16,32,11.80
2016,10,11,16,33,11.80
2016,10,11,16,34,11.80
2016,10,11,16,35,11.80
2016,10,11,16,36,11.80
2016,10,11,16,37,11.90
2016,10,11,16,38,11.90
2016,10,11,16,39,11.90
2016,10,11,16,40,11.90
2016,10,11,16,41,11.90
2016,10,11,16,42,11.90
2016,10,11,16,43,11.90
2016,10,11,16,44,11.90
2016,10,11,16,45,11.90
2016,10,11,16,46,11.90
2016,10,11,16,47,11.90
2016,10,11,16,48,11.90
2016,10,11,16,49,11.90
2016,10,11,16,50,11.90
2016,10,11,16,51,11.90
2016,10,11,16,52,12.00
2016,10,11,16,53,12.00
2016,10,11,16,54,12.00
2016,10,11,16,55,12.00
2016,10,11,16,56,12.00
2016,10,11,16,57,12.00
2016,10,11,16,58,12.10
2016,10,11,16,59,12.10
2016,10,11,17,00,12.10
2016,10,11,17,01,12.10
2016,10,11,17,02,12.10
2016,10,11,17,03,12.10
2016,10,11,17,04,12.10
2016,10,11,17,05,12.20
2016,10,11,17,06,12.20
2016,10,11,17,07,12.20
2016,10,11,17,08,12.20
2016,10,11,17,09,12.20
2016,10,11,17,10,12.10
2016,10,11,17,11,12.10
2016,10,11,17,12,12.10
2016,10,11,17,13,12.00
2016,10,11,17,14,12.00
2016,10,11,17,15,11.90
2016,10,11,17,16,11.90
2016,10,11,17,17,11.80
2016,10,11,17,18,11.80
2016,10,11,17,19,11.80
2016,10,11,17,20,11.70
2016,10,11,17,21,11.70
2016,10,11,17,22,11.60
2016,10,11,17,23,11.50
2016,10,11,17,24,11.40
2016,10,11,17,25,11.40
2016,10,11,17,26,11.30
2016,10,11,17,27,11.20
2016,10,11,17,28,11.20
2016,10,11,17,29,11.10
2016,10,11,17,30,11.00
2016,10,11,17,31,10.90
2016,10,11,17,32,10.80
2016,10,11,17,33,10.70
2016,10,11,17,34,10.70
2016,10,11,17,35,10.60
2016,10,11,17,36,10.50
2016,10,11,17,37,10.40
2016,10,11,17,38,10.30
2016,10,11,17,39,10.30
2016,10,11,17,40,10.20
2016,10,11,17,41,10.10
2016,10,11,17,42,10.00
2016,10,11,17,43,9.90
2016,10,11,17,44,9.90
2016,10,11,17,45,9.80
2016,10,11,17,46,9.80
2016,10,11,17,47,9.70
2016,10,11,17,48,9.60
2016,10,11,17,49,9.60
2016,10,11,17,50,9.50
2016,10,11,17,51,9.50